User: anonymous   Login
Location: Harwich
(41.6860°N, 70.0760°W)
Time: 18:08:24
(UTC-04:00)
Language:

Cosmos 2173 Rocket - Orbit

View from above orbital plane
View from above orbital plane
View from above satellite
View from above satellite

Ground track
Ground track

The orbit data is extracted from the following two-line orbital elements,

1 21797U 91081B   15141.40191148  .00000099  00000-0  83835-4 0  9994
2 21797 082.9544 264.8919 0039016 053.0403 004.2159 13.77332693180085
Epoch (UTC): 21 May 2015 09:38:45
Eccentricity: 0.0039016
inclination: 82.9544°
perigee height: 944 km
apogee height: 1002 km
right ascension of ascending node: 264.8919°
argument of perigee: 53.0403°
revolutions per day: 13.77332693
mean anomaly at epoch: 4.2159°
orbit number at epoch: 18008

The dashed part of the orbit path shows where the satellite is in the earth's shadow,  

DLR